Location: Newark
(25.0000°N, 73.5000°E)
Time: 19:22:30
(UTC+00:00)

Altair - Pass Details

Date: 06 March 2021
Orbit: 1501 x 1683 km, 47.2° (Epoch: 10 April)

Event Time Altitude Azimuth Distance (km) Brightness Sun altitude
Rises 17:55:03 0° 317° (NW) 4,703 10.5 -62.2°
Reaches altitude 10° 17:58:38 10° 328° (NNW) 3,745 9.8 -62.8°
Enters shadow 17:58:56 11° 329° (NNW) 3,672 9.7 -62.9°
Maximum altitude 18:06:46 31° 27° (NNE) 2,543 - -64.1°
Drops below altitude 10° 18:15:08 10° 86° (E) 3,866 - -65.4°
Sets 18:18:52 0° 96° (E) 4,876 - -65.9°
